Theta_e
323 323 321 321 321 321 322 322 322 322 322 322 322 321 321 321 322 323 323 324 324 324 323 323 323 323 318 307 307 323 329 331 320 315 310 308 305 304 300 301 302 300 302 304 304 303 302
325 324 323 323 323 323 323 323 324 323 323 322 322 321 321 321 322 323 323 323 323 323 322 322 322 321 314 301 314 324 323 321 314 311 309 308 306 306 302 301 299 301 301 301 301 301 301
325 325 325 325 325 324 323 323 324 324 323 322 321 321 320 321 322 323 323 323 322 321 322 322 322 318 309 306 316 321 321 316 314 312 308 310 309 306 304 300 302 301 296 298 299 300 299
325 326 325 325 325 325 323 323 323 323 322 321 321 320 320 320 321 322 322 322 319 322 321 320 322 316 304 311 314 315 314 312 314 313 311 310 310 306 303 304 300 296 295 290 298 298 298
326 326 326 326 325 325 324 323 323 323 322 321 320 320 320 321 321 321 322 321 318 321 320 321 317 313 303 312 307 309 311 308 310 309 308 308 308 302 301 295 292 293 288 291 294 300 297
327 326 326 325 325 325 324 323 323 322 321 321 320 320 321 321 321 321 321 319 320 318 319 318 313 304 304 304 307 308 308 309 306 306 304 303 300 295 295 292 285 289 290 292 292 297 297
326 326 325 325 325 324 324 323 323 322 322 321 321 321 322 322 322 322 319 315 312 310 309 308 310 306 311 306 309 306 308 305 305 303 296 299 293 290 294 296 296 292 292 290 294 298 294
326 325 325 325 324 324 323 323 323 324 323 322 321 322 323 322 322 322 317 312 307 307 302 312 311 311 309 307 303 303 306 300 299 295 298 294 290 297 299 298 295 293 290 290 293 297 294
325 325 324 324 324 324 323 323 323 324 324 323 322 323 322 321 320 319 315 310 312 310 301 307 308 306 305 306 304 302 303 301 297 295 295 293 297 300 297 294 293 292 290 290 290 293 293
325 324 324 323 323 323 322 322 322 322 322 322 322 322 322 320 315 319 313 312 313 311 297 300 300 300 302 303 299 302 304 300 299 295 297 295 298 296 294 293 294 289 295 293 291 287 283
324 324 323 322 322 321 321 321 321 320 320 320 320 321 320 316 319 315 312 313 313 307 285 300 296 306 302 298 297 297 301 299 295 296 293 293 292 291 291 293 295 292 293 290 289 286 284
324 324 323 322 322 321 321 321 321 320 319 319 319 319 318 317 319 316 314 312 310 295 286 295 298 297 296 296 296 298 298 299 297 294 294 293 294 293 293 294 294 293 290 290 288 286 279
324 324 323 322 322 321 320 320 318 316 315 315 317 317 315 318 312 316 314 311 296 288 300 295 294 296 295 294 294 294 294 291 290 287 288 292 292 293 294 289 291 289 286 280 279 278 279
325 323 323 322 322 319 318 317 315 313 311 310 312 316 315 316 313 313 312 303 287 295 296 300 297 297 296 298 296 294 293 290 295 292 288 286 285 291 292 291 289 290 289 281 273 275 279
323 322 319 317 317 316 314 313 311 309 308 309 311 311 311 315 315 315 308 292 291 295 298 297 298 293 294 296 296 294 293 293 294 294 288 286 285 292 292 292 292 288 285 290 282 278 276
318 318 316 315 314 312 311 309 307 307 307 310 308 305 306 314 314 311 298 293 295 299 298 298 292 294 289 292 292 292 291 292 292 294 296 292 285 293 291 292 290 288 290 283 284 278 272
312 312 311 311 310 309 308 307 306 305 306 309 304 297 306 314 313 301 289 292 296 299 300 295 293 292 292 291 292 290 290 294 296 292 294 293 290 287 291 288 287 286 286 287 287 283 276
309 308 307 307 306 305 304 304 304 303 305 306 301 291 307 313 295 296 291 294 296 296 298 297 296 294 292 292 290 290 290 293 298 296 291 293 289 280 285 291 292 290 288 288 281 278 281
307 307 306 305 304 303 303 302 303 304 305 303 295 296 307 307 288 290 294 294 295 294 294 294 293 295 294 291 287 290 291 295 296 294 292 292 284 276 277 283 290 288 289 289 287 285 281
306 305 304 304 303 302 301 301 301 302 301 302 295 287 296 299 298 292 291 291 290 296 295 295 294 294 292 290 292 288 289 293 294 294 295 294 285 279 274 279 284 280 284 285 284 279 278
305 304 304 303 303 302 302 300 300 300 298 298 293 288 293 287 291 292 292 291 289 289 294 293 291 291 290 286 287 286 289 289 292 293 292 290 279 283 284 285 284 282 281 282 280 281 277
304 304 303 302 302 302 301 301 300 300 297 295 289 288 290 290 291 291 291 287 287 288 290 288 288 288 289 286 287 281 285 285 285 287 287 287 274 279 273 280 280 278 280 280 280 280 280
301 302 303 301 301 301 301 301 300 300 298 291 292 292 289 288 287 287 288 288 288 290 290 290 288 287 285 286 287 287 286 286 286 283 281 280 275 268 267 276 274 267 275 277 278 280 279
301 302 302 302 301 301 301 301 301 300 298 293 292 291 286 283 285 286 285 288 287 287 285 287 287 286 286 289 287 284 283 283 283 283 285 277 272 271 266 266 260 274 279 279 277 278 278
301 301 301 301 302 302 301 300 301 301 301 294 294 290 286 280 284 283 284 283 284 286 283 284 285 286 287 282 276 270 269 270 275 279 280 282 278 272 264 262 271 275 277 276 273 274 277
301 301 301 301 301 301 302 301 302 301 301 296 294 295 288 282 280 284 282 283 280 280 279 280 283 285 283 280 273 262 262 268 266 272 277 278 278 272 263 261 257 271 276 279 278 269 275
301 301 301 302 302 301 302 301 301 302 301 298 294 296 289 281 284 283 280 280 283 282 278 278 278 278 282 276 266 265 264 274 266 264 265 264 265 268 269 266 268 274 276 278 264 269 275
301 301 301 302 302 302 302 301 301 301 301 298 294 296 290 283 285 286 286 282 282 281 275 274 276 275 275 270 269 273 267 272 270 273 271 268 264 262 262 261 264 276 275 271 276 279 279
301 301 301 301 301 302 301 302 302 301 302 301 293 297 297 288 284 290 291 290 288 287 283 277 279 274 279 274 273 273 266 270 268 262 275 267 271 266 269 268 277 278 278 280 280 277 279
Wind_Speed
11 11 10 9 9 8 7 7 6 6 5 5 5 5 6 6 8 9 10 11 12 12 12 11 9 8 5 4 3 4 6 6 7 4 7 6 7 6 6 5 5 7 9 10 10 6 7
14 13 13 12 11 10 9 8 7 6 6 5 5 6 6 7 8 9 11 12 14 13 12 9 7 4 4 6 3 6 6 4 5 6 7 7 4 4 7 6 6 7 8 9 9 14 11
14 14 13 13 12 11 10 8 8 7 6 6 5 6 6 7 9 10 11 13 14 10 9 7 5 4 4 6 3 5 5 3 3 6 8 5 5 2 6 5 7 7 6 9 14 9 7
15 16 14 13 12 10 9 8 8 8 7 6 6 6 6 8 10 11 12 13 9 7 5 1 6 4 6 2 4 3 3 3 2 3 4 6 3 5 3 5 4 6 6 4 8 4 4
16 15 13 12 11 10 10 10 10 9 8 7 5 5 6 8 10 11 12 11 4 3 3 5 4 4 3 1 3 3 3 1 4 2 3 1 2 3 3 2 5 7 6 9 9 6 7
17 16 15 14 13 12 11 10 9 9 8 7 6 6 7 9 10 12 14 6 5 4 5 5 5 2 3 2 4 2 2 3 2 6 4 4 4 3 3 4 5 6 9 10 10 8 8
17 16 15 15 14 13 12 11 10 10 9 8 7 7 8 9 10 12 9 3 3 2 5 6 5 10 3 4 3 4 2 5 4 4 4 5 4 7 11 12 11 4 8 10 9 9 10
19 18 16 16 14 13 12 12 12 11 10 9 8 8 9 9 9 12 4 3 3 1 7 7 13 8 4 3 1 5 3 6 5 7 7 3 7 13 9 8 9 8 9 10 8 7 6
20 19 18 17 16 15 14 13 12 12 11 10 8 8 8 9 10 6 3 3 1 2 4 5 2 2 3 1 4 5 4 3 6 7 8 9 8 7 4 5 10 9 9 9 9 8 8
21 20 19 19 18 16 15 14 13 12 11 11 10 9 8 5 3 4 3 5 2 2 4 6 4 3 3 2 2 1 3 3 5 5 7 9 4 4 5 9 6 8 7 3 3 3 4
23 21 20 19 18 17 16 15 13 13 12 12 11 9 6 5 5 2 5 5 3 2 6 3 4 1 2 2 5 2 0 3 5 3 1 2 4 2 5 6 2 2 5 4 4 6 6
23 22 22 21 19 19 17 16 14 13 13 12 10 8 6 4 4 4 5 5 2 2 9 4 5 4 4 3 2 4 4 4 2 3 5 7 4 3 5 1 2 5 4 8 8 3 3
21 22 22 21 20 19 17 16 18 15 13 7 7 7 4 4 1 5 4 3 2 6 1 6 3 4 2 6 6 5 5 4 4 3 4 4 7 5 1 2 3 2 3 5 4 2 7
22 21 21 20 16 13 17 17 18 15 14 12 8 6 2 2 4 5 3 3 7 5 7 2 3 3 4 6 5 6 3 4 9 3 3 4 5 7 5 2 2 5 3 4 6 2 8
14 11 13 18 20 20 21 21 20 16 12 9 6 2 1 2 2 2 3 5 6 7 3 4 6 4 6 5 4 6 9 8 4 2 4 3 2 3 2 2 3 2 3 1 2 3 1
10 14 20 22 22 23 24 22 19 15 11 8 3 1 2 2 3 0 2 5 6 3 2 3 4 5 7 7 7 7 5 3 4 6 5 4 5 3 3 4 3 2 1 2 0 4 5
21 19 16 18 20 18 19 19 17 15 10 5 3 3 1 2 1 2 4 6 6 4 5 5 7 10 9 8 5 4 3 3 3 4 3 4 0 3 5 3 3 2 3 4 4 5 4
17 18 16 15 18 16 15 15 15 14 10 5 3 2 2 3 4 4 5 6 2 4 3 4 2 3 4 3 5 8 7 7 7 4 2 2 1 5 8 10 8 7 11 6 4 7 6
14 16 15 13 16 13 14 12 13 15 12 3 3 3 1 4 6 8 3 6 7 7 10 7 8 9 5 8 5 7 6 7 9 3 2 2 1 3 11 2 5 3 3 5 8 0 9
13 15 11 12 11 12 12 11 12 11 4 2 4 4 3 3 6 5 10 10 10 7 8 11 4 5 4 6 6 3 2 4 5 5 7 3 2 5 9 10 9 6 13 12 3 5 10
10 14 14 15 15 15 14 12 10 10 4 2 2 4 4 6 9 12 4 3 13 10 6 2 7 12 9 6 8 12 8 6 6 10 5 3 6 7 13 13 13 10 14 16 13 16 16
10 12 13 13 12 11 11 14 11 9 3 2 3 3 1 4 8 15 15 10 11 5 9 8 9 4 8 11 7 0 5 4 0 4 5 4 5 1 7 4 9 16 21 16 17 20 22
7 8 12 11 11 10 12 11 11 11 6 2 2 1 2 5 4 8 12 15 7 8 5 1 1 3 6 4 9 7 5 5 3 1 2 2 3 2 8 1 3 9 19 19 16 18 17
14 14 12 12 14 12 11 12 13 13 9 1 1 1 1 3 6 7 0 11 10 8 4 5 0 5 5 6 5 5 3 4 6 9 8 5 4 3 5 5 5 11 2 4 8 10 5
16 15 16 15 13 14 14 13 16 15 14 3 2 3 1 2 5 4 6 4 2 6 3 5 3 5 7 6 4 5 5 7 7 14 14 14 7 5 4 7 9 13 8 9 5 13 1
15 14 15 15 16 16 16 17 17 16 17 4 3 1 1 1 4 3 6 6 4 4 3 5 4 6 4 3 3 6 6 5 3 1 3 7 11 6 2 5 8 1 6 5 2 10 6
19 19 17 18 19 17 18 17 16 17 16 5 2 5 3 2 3 2 5 7 6 7 4 5 4 2 2 3 3 4 5 6 5 6 6 3 1 12 12 8 8 1 5 5 5 12 2
18 18 16 17 19 19 18 18 19 16 18 8 3 7 4 2 4 4 4 4 5 3 5 4 5 2 2 4 5 4 4 6 4 5 4 7 6 5 2 3 11 3 4 7 6 3 6
20 19 17 17 17 20 20 19 19 19 21 17 3 6 1 2 2 4 8 7 4 7 6 4 4 5 6 3 2 2 2 2 5 4 5 4 9 7 9 7 4 6 8 8 4 5 6
Wind_Direction
215 216 224 233 247 254 256 258 265 274 280 281 289 302 312 315 318 322 322 318 315 310 305 301 301 312 294 221 265 112 125 135 165 223 221 213 232 222 252 258 300 270 247 271 291 304 279
218 218 224 231 236 247 250 251 257 258 269 276 287 296 303 310 313 321 322 320 317 310 306 298 279 291 253 235 111 123 117 147 193 226 227 241 252 342 293 284 266 310 347 304 281 270 264
223 229 231 227 230 238 246 246 248 252 253 262 269 281 299 311 314 316 315 316 316 309 305 284 246 220 253 255 43 109 157 184 230 228 247 244 338 309 345 312 9 336 315 287 271 270 249
230 232 231 234 231 233 236 246 246 249 252 253 261 281 305 315 316 315 315 317 315 324 345 304 182 231 261 16 34 173 157 129 236 261 329 21 5 289 272 315 306 272 254 290 265 207 160
234 232 228 231 224 225 231 236 246 244 249 248 255 277 297 308 309 309 307 314 262 357 64 134 195 255 261 185 173 55 304 191 115 91 42 123 229 236 277 223 284 230 248 258 283 257 128
232 231 230 229 230 226 222 226 233 240 242 246 255 264 287 294 302 307 308 270 200 285 223 229 266 262 175 113 110 84 33 159 156 146 150 192 214 209 223 208 229 271 298 310 304 316 315
226 226 226 224 226 224 219 216 221 231 235 246 253 264 270 283 299 309 327 215 237 194 226 267 301 283 328 85 162 133 170 172 167 223 207 204 206 205 226 230 245 322 299 296 299 303 289
224 223 221 225 222 224 220 218 217 217 228 232 241 254 268 282 295 305 282 21 67 52 304 263 262 259 75 359 277 134 264 194 194 205 184 138 225 235 262 298 300 290 295 281 273 276 332
222 222 221 221 221 219 219 219 221 218 220 226 233 249 264 280 311 296 54 74 114 202 246 271 27 13 47 272 239 119 212 220 202 230 201 224 253 317 260 262 273 264 259 279 285 336 288
220 220 221 221 221 218 216 215 218 219 218 221 216 221 238 285 312 123 141 142 143 338 270 186 152 123 169 261 177 14 354 322 234 256 241 227 302 294 262 259 255 278 293 309 309 318 238
219 217 221 222 222 218 213 214 214 215 215 210 203 208 231 197 331 231 118 133 132 218 284 85 133 87 134 254 136 135 163 166 254 235 189 200 137 150 233 235 108 238 2 327 286 258 302
220 214 220 219 225 221 214 212 217 209 187 190 180 191 190 227 235 104 131 126 187 219 243 127 132 152 182 186 139 138 180 231 74 277 229 245 138 214 219 53 211 45 284 256 238 209 268
222 217 211 218 218 217 214 191 150 140 131 127 144 165 175 300 115 124 137 187 214 233 175 149 129 188 221 157 168 200 176 185 211 221 209 156 197 181 125 208 128 133 274 323 317 141 217
225 215 212 213 215 174 156 141 127 129 122 121 116 125 213 298 135 153 162 204 209 200 279 83 135 182 249 158 173 181 213 235 224 234 256 227 304 134 169 236 77 205 207 184 255 240 294
225 201 148 128 132 135 131 124 121 120 111 108 118 63 39 340 35 265 217 220 193 216 279 224 147 242 225 188 199 204 217 256 44 55 251 346 239 115 136 59 117 9 170 340 280 335 70
111 143 147 141 138 137 130 125 120 111 120 142 101 130 133 291 183 315 160 220 218 258 40 339 239 264 278 260 173 185 208 77 92 42 18 45 299 291 112 126 222 217 42 336 157 234 251
87 90 99 106 114 118 120 120 118 116 114 76 78 96 128 247 212 100 214 224 236 265 164 212 239 251 276 293 300 281 256 86 149 116 52 70 202 245 349 191 193 241 251 217 245 212 242
102 101 100 104 105 108 107 114 113 120 125 96 116 96 158 169 180 197 205 188 217 188 186 247 315 278 259 286 276 248 221 186 86 84 179 127 271 259 246 291 287 265 269 249 218 261 254
127 122 130 129 126 132 127 124 129 145 166 148 105 128 179 277 204 214 218 215 230 185 201 194 217 212 213 238 231 232 241 79 91 101 86 123 189 303 323 292 32 110 53 327 316 274 254
142 129 129 136 139 146 135 132 119 124 172 290 141 163 168 219 267 259 207 220 218 206 235 223 220 234 245 240 267 227 214 90 99 95 89 32 235 190 226 256 341 317 302 287 206 274 286
159 152 174 170 179 179 167 150 137 124 134 208 217 224 174 192 212 228 263 253 219 194 217 207 240 239 222 237 238 244 239 229 130 137 146 187 241 218 258 275 290 296 279 279 274 265 259
201 199 195 183 181 181 167 162 153 136 134 270 159 180 280 316 197 201 203 222 223 251 164 203 235 239 232 243 220 149 71 24 215 145 186 196 252 237 281 271 277 274 269 270 269 267 265
219 217 211 202 198 184 194 180 170 160 188 234 76 328 282 172 198 188 215 218 214 200 178 257 224 262 267 57 57 66 35 2 344 96 161 274 156 95 254 134 320 294 252 248 253 254 259
214 216 218 213 214 203 188 204 200 178 190 1 89 250 198 229 203 204 161 213 220 190 150 122 71 135 95 90 78 48 28 278 256 240 210 207 138 158 256 67 239 249 210 317 287 281 283
228 223 220 218 212 212 212 209 205 190 190 168 126 263 154 254 205 214 182 149 189 104 84 126 82 72 114 67 65 12 333 3 254 233 219 223 209 235 205 203 278 302 292 294 310 289 27
229 236 240 238 226 223 213 209 204 206 196 181 170 181 70 41 239 293 167 169 161 127 99 99 51 13 90 127 126 180 213 202 291 292 152 200 212 198 176 209 224 130 95 139 97 271 224
230 234 229 224 229 223 222 223 218 214 210 179 182 170 114 176 256 248 175 189 163 151 123 117 135 43 64 168 148 186 239 165 208 185 192 137 256 219 236 246 263 195 125 110 119 268 198
241 238 236 234 224 220 223 223 231 232 217 185 203 182 161 181 264 229 224 172 128 141 138 178 88 305 135 169 167 210 190 211 203 218 197 160 171 212 168 242 274 154 108 165 213 170 178
241 247 240 223 225 221 220 218 216 219 220 201 182 193 192 179 288 319 273 242 190 175 131 194 163 148 164 160 196 182 210 220 159 229 174 252 200 193 184 199 207 190 206 218 235 215 247